�N����,����,�~����,�C��,���x,�C��,����,���ϕ���,�ő�u�ԕ���,�ő厞����,���˗�,�I�_���x,�n�����x,�ő啗���N��,DTYPE
"18/07/08","00:10",0.0,22.8,97.3,1005.7,332.9,0.6,1.3,345.2,0.00,22.4,23.3,"00:04:32",1
"18/07/08","00:20",0.0,22.8,97.3,1006.2,310.6,0.6,0.9,308.8,0.00,22.4,23.3,"00:10:24",1
"18/07/08","00:30",0.0,22.8,97.3,1005.7,314.0,0.7,1.3,322.2,0.00,22.4,23.3,"00:27:38",1
"18/07/08","00:40",0.0,22.7,97.4,1006.0,287.8,0.5,0.8,319.5,0.00,22.3,23.3,"00:31:36",1
"18/07/08","00:50",0.0,22.7,97.4,1005.7,301.4,0.6,1.1,322.1,0.00,22.3,23.3,"00:48:48",1
"18/07/08","01:00",0.2,22.7,97.4,1006.0,299.4,0.5,0.9,334.3,0.00,22.3,23.3,"00:50:32",1
"18/07/08","01:10",0.0,22.7,97.5,1005.7,323.3,0.7,1.3,333.1,0.00,22.3,23.2,"01:05:12",1
"18/07/08","01:20",0.0,22.7,97.5,1006.0,346.1,0.1,0.5,325.2,0.00,22.3,23.5,"01:17:36",1
"18/07/08","01:30",0.0,22.6,97.5,1006.0,299.5,0.2,0.6,321.8,0.00,22.2,23.3,"01:27:20",1
"18/07/08","01:40",0.2,22.6,97.6,1006.2,267.8,0.5,1.0,318.0,0.00,22.2,23.1,"01:30:40",1
"18/07/08","01:50",0.8,22.6,97.6,1006.2,301.0,0.3,0.6,293.0,0.00,22.2,23.2,"01:43:36",1
"18/07/08","02:00",0.4,22.6,97.6,1006.2,333.1,0.3,0.9,334.2,0.00,22.2,23.3,"01:51:52",1
"18/07/08","02:10",2.6,22.6,97.6,1006.0,353.5,0.7,1.2,355.7,0.00,22.2,23.2,"02:06:24",1
"18/07/08","02:20",0.2,22.6,97.6,1006.0,242.7,0.2,0.6,240.8,0.00,22.2,23.2,"02:16:48",1
"18/07/08","02:30",0.6,22.6,97.7,1006.0,315.0,0.3,0.9,336.3,0.00,22.3,23.3,"02:21:44",1
"18/07/08","02:40",0.6,22.6,97.7,1006.2,205.2,0.6,1.1,213.1,0.00,22.3,23.1,"02:34:44",1
"18/07/08","02:50",0.2,22.6,97.7,1006.0,335.1,0.6,1.0,326.8,0.00,22.3,23.1,"02:43:38",1
"18/07/08","03:00",0.0,22.5,97.7,1006.2,338.9,0.6,1.1,325.3,0.00,22.2,23.1,"02:59:56",1
"18/07/08","03:10",0.0,22.4,97.7,1006.0,282.8,0.3,1.1,325.3,0.00,22.1,23.1,"03:00:24",1
"18/07/08","03:20",0.0,22.4,97.8,1006.0,291.4,0.3,0.6,335.7,0.00,22.1,23.1,"03:11:52",1
"18/07/08","03:30",0.0,22.3,97.9,1006.0,299.3,0.5,0.8,312.1,0.00,22.0,23.2,"03:28:24",1
"18/07/08","03:40",0.0,22.3,97.8,1005.7,277.5,0.3,0.9,322.5,0.00,22.0,23.2,"03:30:16",1
"18/07/08","03:50",0.0,22.2,97.9,1006.0,318.7,0.6,0.9,322.5,0.00,21.9,23.1,"03:42:16",1
"18/07/08","04:00",0.0,22.3,97.9,1006.0,350.4,0.5,0.8,345.3,0.00,22.0,23.2,"03:50:32",1
"18/07/08","04:10",0.0,22.1,97.9,1005.7,292.4,0.5,0.8,299.2,0.00,21.8,23.1,"04:01:20",1
"18/07/08","04:20",0.0,22.1,97.9,1006.0,287.4,0.5,0.8,316.9,0.00,21.8,22.9,"04:13:44",1
"18/07/08","04:30",0.0,22.1,98.0,1006.0,304.2,0.2,0.6,342.9,0.00,21.8,23.0,"04:22:00",1
"18/07/08","04:40",0.0,22.1,97.4,1006.2,318.2,0.1,0.9,328.1,0.00,21.7,22.8,"04:39:28",1
"18/07/08","04:50",0.0,22.1,97.9,1006.0,345.6,0.7,1.1,349.4,0.00,21.8,23.0,"04:46:08",1
"18/07/08","05:00",0.0,22.0,98.0,1006.4,296.0,0.5,0.9,321.7,0.00,21.7,23.1,"04:55:12",1
"18/07/08","05:10",0.0,22.1,97.4,1006.7,273.5,0.3,0.6,240.3,0.00,21.7,22.7,"05:04:16",1
"18/07/08","05:20",0.0,22.0,98.0,1006.4,312.4,0.3,0.9,253.6,0.00,21.7,22.9,"05:12:40",1
"18/07/08","05:30",0.0,22.1,97.4,1006.7,274.8,0.0,0.4,264.7,0.00,21.7,22.9,"05:25:52",1
"18/07/08","05:40",0.0,22.0,97.9,1006.7,20.0,0.0,0.4,32.3,0.00,21.7,22.9,"05:35:28",1
"18/07/08","05:50",0.0,22.0,98.0,1006.4,312.2,0.6,0.9,339.3,0.00,21.7,22.7,"05:49:20",1
"18/07/08","06:00",0.0,22.2,97.6,1006.7,335.1,0.6,1.2,340.3,0.00,21.8,23.0,"05:51:28",1
"18/07/08","06:10",0.0,22.6,98.2,1006.7,325.9,0.2,0.8,328.2,0.01,22.3,23.0,"06:01:04",1
"18/07/08","06:20",0.0,23.1,97.4,1006.4,326.3,0.5,1.1,315.5,0.02,22.7,22.9,"06:15:20",1
"18/07/08","06:30",0.0,23.3,97.6,1006.4,284.4,0.2,0.8,330.4,0.04,22.9,23.0,"06:22:00",1
"18/07/08","06:40",0.0,23.9,97.0,1006.7,355.1,0.2,0.8,11.5,0.06,23.4,22.9,"06:34:40",1
"18/07/08","06:50",0.0,23.8,96.9,1006.7,8.9,0.2,0.5,10.9,0.05,23.3,22.9,"06:41:20",1
"18/07/08","07:00",0.0,23.9,97.4,1006.4,166.8,0.1,0.6,213.4,0.08,23.5,23.0,"06:52:00",1
"18/07/08","07:10",0.0,24.5,96.6,1006.0,101.5,0.3,1.0,97.4,0.11,24.0,23.0,"07:04:40",1
"18/07/08","07:20",0.0,24.5,95.7,1006.2,70.5,0.3,0.9,184.6,0.14,23.8,23.0,"07:18:32",1
"18/07/08","07:30",0.0,25.2,94.1,1006.4,161.3,0.5,1.4,213.7,0.16,24.2,23.0,"07:24:40",1
"18/07/08","07:40",0.0,25.5,90.1,1006.4,185.5,0.3,1.2,182.0,0.19,23.8,23.0,"07:35:04",1
"18/07/08","07:50",0.0,25.9,87.1,1006.4,107.7,0.1,1.0,347.2,0.21,23.6,23.2,"07:42:48",1
"18/07/08","08:00",0.0,26.6,87.0,1006.0,141.9,0.2,1.0,206.7,0.24,24.3,23.3,"07:50:02",1
"18/07/08","08:10",0.0,26.6,86.1,1006.4,210.6,0.7,1.4,183.4,0.29,24.1,23.1,"08:00:40",1
"18/07/08","08:20",0.0,27.2,83.7,1006.2,199.7,0.6,1.4,186.3,0.25,24.2,23.5,"08:15:28",1
"18/07/08","08:30",0.0,27.3,84.2,1006.7,112.7,0.5,1.4,101.7,0.22,24.4,23.3,"08:23:04",1
"18/07/08","08:40",0.0,26.6,83.7,1007.1,173.5,0.7,1.6,142.3,0.21,23.7,23.5,"08:35:12",1
"18/07/08","08:50",0.0,26.9,84.8,1007.1,170.5,1.0,2.0,226.9,0.22,24.2,23.7,"08:48:48",1
"18/07/08","09:00",0.0,26.8,84.2,1007.6,182.8,1.1,2.6,224.6,0.19,23.9,23.8,"08:58:56",1
"18/07/08","09:10",0.0,27.6,82.8,1007.1,230.7,0.5,1.4,214.9,0.26,24.5,23.8,"09:00:56",1
"18/07/08","09:20",0.0,27.4,81.6,1007.4,188.2,0.6,1.8,221.3,0.26,24.0,23.7,"09:10:40",1
"18/07/08","09:30",0.0,28.0,81.0,1007.6,182.0,0.3,0.9,207.2,0.28,24.5,24.0,"09:20:32",1
"18/07/08","09:40",0.0,27.6,80.6,1007.6,134.8,0.5,1.9,201.1,0.23,24.0,24.1,"09:35:12",1
"18/07/08","09:50",0.0,27.8,79.2,1007.8,203.8,0.2,1.0,232.9,0.21,23.9,24.2,"09:47:20",1
"18/07/08","10:00",0.0,28.1,78.1,1007.4,180.6,0.8,2.0,199.0,0.24,24.0,24.3,"09:58:56",1
"18/07/08","10:10",0.0,28.2,77.9,1008.1,175.7,1.0,2.8,183.2,0.30,24.0,24.3,"10:07:44",1
"18/07/08","10:20",0.0,28.8,79.1,1008.1,183.4,1.1,2.2,196.3,0.28,24.9,24.5,"10:13:20",1
"18/07/08","10:30",0.0,28.6,77.8,1007.8,157.7,0.8,1.7,141.1,0.25,24.4,24.5,"10:27:28",1
"18/07/08","10:40",0.0,28.7,76.7,1007.8,187.2,0.6,1.9,102.2,0.22,24.2,24.6,"10:30:48",1
"18/07/08","10:50",0.0,28.4,78.8,1007.8,229.5,0.7,1.9,338.8,0.15,24.4,24.5,"10:40:48",1
"18/07/08","11:00",0.0,28.6,76.4,1007.6,143.8,0.8,1.9,63.6,0.20,24.1,24.6,"10:50:24",1
"18/07/08","11:10",0.0,30.7,75.5,1007.6,120.4,1.1,2.6,124.2,0.53,25.9,24.7,"11:08:20",1
"18/07/08","11:20",0.0,29.5,73.1,1008.1,107.0,1.0,2.6,139.6,0.38,24.2,25.0,"11:13:52",1
"18/07/08","11:30",0.0,30.0,74.8,1008.3,133.4,1.2,2.8,114.6,0.50,25.1,25.1,"11:21:20",1
"18/07/08","11:40",0.0,29.5,72.0,1008.3,123.8,0.7,2.1,118.9,0.23,24.0,25.2,"11:31:28",1
"18/07/08","11:50",0.0,29.1,71.7,1008.3,153.7,1.6,4.2,133.1,0.39,23.5,25.4,"11:47:04",1
"18/07/08","12:00",0.0,29.9,70.6,1007.8,177.7,1.3,3.6,171.3,0.35,24.0,25.5,"11:54:16",1
"18/07/08","12:10",0.0,30.2,69.4,1007.8,177.7,1.3,3.1,182.0,0.38,24.0,25.7,"12:00:56",1
"18/07/08","12:20",0.0,30.6,68.2,1007.6,166.6,1.3,3.3,156.7,0.35,24.1,25.7,"12:12:32",1
"18/07/08","12:30",0.0,30.3,67.1,1007.6,145.8,1.5,3.1,140.2,0.28,23.6,25.8,"12:20:02",1
"18/07/08","12:40",0.0,30.2,65.9,1007.6,130.3,1.6,3.9,130.9,0.34,23.2,26.1,"12:30:24",1
"18/07/08","12:50",0.0,30.4,65.5,1007.4,145.3,1.7,3.6,180.0,0.33,23.2,26.0,"12:45:44",1
"18/07/08","13:00",0.0,30.6,65.0,1007.6,161.0,1.6,4.0,150.2,0.36,23.3,25.9,"12:50:16",1
"18/07/08","13:10",0.0,31.3,63.8,1007.4,152.0,2.0,4.3,127.9,0.49,23.7,26.3,"13:05:36",1
"18/07/08","13:20",0.0,31.9,61.6,1007.1,144.5,1.7,4.4,122.5,0.61,23.6,26.2,"13:11:12",1
"18/07/08","13:30",0.0,30.9,63.7,1007.8,174.3,2.0,3.6,178.5,0.28,23.3,26.1,"13:21:36",1
"18/07/08","13:40",0.0,30.5,63.5,1007.6,161.5,2.3,4.1,176.4,0.18,22.8,26.3,"13:32:24",1
"18/07/08","13:50",0.0,30.1,63.4,1006.9,159.7,2.1,3.7,126.7,0.14,22.4,26.4,"13:45:04",1
"18/07/08","14:00",0.0,30.1,64.2,1006.9,160.0,2.0,3.7,134.8,0.13,22.6,26.4,"13:59:20",1
"18/07/08","14:10",0.0,30.0,64.4,1006.4,138.5,2.3,4.4,115.6,0.08,22.6,26.2,"14:03:28",1
"18/07/08","14:20",0.0,30.2,64.1,1006.2,148.5,1.3,3.7,146.2,0.09,22.7,26.1,"14:19:36",1
"18/07/08","14:30",0.0,30.6,62.7,1006.4,165.5,1.5,3.4,222.9,0.13,22.7,26.2,"14:22:16",1
"18/07/08","14:40",0.0,30.7,63.6,1006.2,207.0,1.0,2.8,225.7,0.16,23.0,26.2,"14:36:00",1
"18/07/08","14:50",0.0,30.5,64.7,1006.2,208.9,1.0,2.8,221.3,0.09,23.1,26.2,"14:45:12",1
"18/07/08","15:00",0.0,31.0,63.5,1006.4,239.2,1.0,3.1,219.3,0.17,23.3,26.0,"14:52:40",1
"18/07/08","15:10",0.0,31.1,61.1,1006.4,227.7,1.0,2.7,224.8,0.25,22.8,26.3,"15:06:40",1
"18/07/08","15:20",0.0,31.4,62.9,1006.7,193.7,1.3,3.1,187.1,0.20,23.5,26.3,"15:12:08",1
"18/07/08","15:30",0.0,32.0,62.6,1006.9,237.3,0.7,2.0,223.2,0.35,24.0,26.2,"15:20:16",1
"18/07/08","15:40",0.0,33.3,63.9,1007.4,22.1,0.7,1.9,191.5,0.49,25.6,26.4,"15:31:44",1
"18/07/08","15:50",0.0,32.3,57.9,1008.1,267.0,1.2,3.4,350.6,0.42,23.0,26.2,"15:49:36",1
"18/07/08","16:00",0.0,32.4,60.6,1008.1,241.5,1.2,3.4,183.8,0.34,23.8,26.4,"15:59:36",1
"18/07/08","16:10",0.0,31.2,61.6,1007.8,181.2,1.3,4.3,202.6,0.16,23.0,26.5,"16:01:44",1
"18/07/08","16:20",0.0,31.0,61.9,1007.6,199.8,1.0,2.6,216.2,0.09,22.9,26.7,"16:19:28",1
"18/07/08","16:30",0.0,32.2,58.9,1007.6,211.8,1.7,2.9,216.8,0.31,23.2,26.7,"16:25:36",1
"18/07/08","16:40",0.0,32.5,59.2,1007.4,233.8,0.8,2.7,235.5,0.20,23.5,26.6,"16:30:16",1
"18/07/08","16:50",0.0,31.8,59.4,1007.6,251.4,1.1,3.3,241.9,0.28,22.9,26.8,"16:44:24",1
"18/07/08","17:00",0.0,32.0,58.0,1007.6,255.2,1.1,2.9,336.1,0.17,22.7,26.7,"16:52:00",1
"18/07/08","17:10",0.0,31.0,61.0,1007.6,247.8,1.2,2.9,216.9,0.08,22.6,26.7,"17:00:16",1
"18/07/08","17:20",0.0,30.2,64.5,1007.1,242.9,1.5,4.0,219.8,0.07,22.8,26.7,"17:16:00",1
"18/07/08","17:30",0.0,30.0,66.4,1006.7,254.8,1.1,3.2,281.1,0.07,23.1,26.8,"17:20:08",1
"18/07/08","17:40",0.0,29.7,67.5,1006.4,321.8,1.1,3.5,342.1,0.06,23.1,26.6,"17:38:48",1
"18/07/08","17:50",0.0,28.8,69.2,1006.4,342.8,1.7,4.7,334.2,0.03,22.6,26.7,"17:43:36",1
"18/07/08","18:00",0.0,28.5,69.5,1006.2,319.0,1.6,3.4,347.4,0.02,22.4,26.6,"17:58:32",1
"18/07/08","18:10",0.0,28.1,69.4,1006.2,324.4,2.0,5.0,343.7,0.02,22.0,26.5,"18:09:28",1
"18/07/08","18:20",0.0,28.0,70.1,1006.2,341.7,2.0,4.7,349.6,0.02,22.1,26.5,"18:10:16",1
"18/07/08","18:30",0.0,27.9,70.2,1007.1,332.4,1.7,3.4,323.5,0.01,22.0,26.5,"18:21:36",1
"18/07/08","18:40",0.0,27.7,71.2,1006.9,337.5,1.2,2.6,331.0,0.00,22.0,26.2,"18:30:08",1
"18/07/08","18:50",0.0,27.5,71.8,1007.4,339.8,1.0,2.1,324.5,0.00,22.0,26.2,"18:46:40",1
"18/07/08","19:00",0.0,27.5,73.7,1007.1,338.1,0.8,2.0,338.5,0.00,22.4,26.3,"18:52:40",1
"18/07/08","19:10",0.0,26.8,77.1,1007.1,303.4,0.6,1.1,323.7,0.00,22.5,25.9,"19:01:12",1
"18/07/08","19:20",0.0,26.4,78.7,1007.6,305.6,0.7,1.2,336.8,0.00,22.4,26.0,"19:19:44",1
"18/07/08","19:30",0.0,26.1,79.6,1007.8,326.9,1.0,1.9,332.4,0.00,22.3,25.8,"19:22:56",1
"18/07/08","19:40",0.0,25.9,80.6,1008.1,329.0,0.6,1.4,341.3,0.00,22.3,26.0,"19:32:24",1
"18/07/08","19:50",0.0,25.5,82.4,1008.1,302.9,0.5,1.2,318.7,0.00,22.3,25.7,"19:42:40",1
"18/07/08","20:00",0.0,25.3,84.4,1008.1,295.4,0.7,1.6,326.8,0.00,22.5,25.7,"19:55:20",1
"18/07/08","20:10",0.0,25.3,84.5,1008.6,328.6,0.7,1.3,339.5,0.00,22.5,25.5,"20:05:28",1
"18/07/08","20:20",0.0,25.2,85.3,1008.8,312.8,0.8,1.4,332.7,0.00,22.6,25.6,"20:13:20",1
"18/07/08","20:30",0.0,25.1,85.8,1009.0,319.4,0.7,1.2,337.7,0.00,22.6,25.3,"20:29:04",1
"18/07/08","20:40",0.0,25.0,86.1,1009.0,307.1,0.5,1.0,336.7,0.00,22.6,25.4,"20:30:32",1
"18/07/08","20:50",0.0,24.9,86.0,1008.8,274.8,0.5,0.9,319.0,0.00,22.4,25.3,"20:48:40",1
"18/07/08","21:00",0.0,24.9,86.0,1009.5,294.3,0.5,1.2,260.3,0.00,22.4,25.2,"20:54:32",1
"18/07/08","21:10",0.0,25.0,86.2,1009.7,319.8,0.5,1.3,341.3,0.00,22.6,25.2,"21:04:32",1
"18/07/08","21:20",0.0,25.1,87.3,1009.5,330.0,0.6,1.1,336.6,0.00,22.9,25.1,"21:11:52",1
"18/07/08","21:30",0.0,24.8,87.6,1010.2,290.6,0.6,1.0,309.8,0.00,22.6,25.1,"21:27:12",1
"18/07/08","21:40",0.0,24.6,87.8,1010.0,304.8,0.6,0.9,317.2,0.00,22.5,25.1,"21:31:04",1
"18/07/08","21:50",0.0,24.6,87.7,1009.7,314.9,0.6,1.1,319.3,0.00,22.5,25.0,"21:45:36",1
"18/07/08","22:00",0.0,24.7,88.1,1009.7,337.5,0.8,1.2,327.3,0.00,22.6,24.9,"21:50:24",1
"18/07/08","22:10",0.0,24.5,88.5,1010.2,304.5,0.6,1.2,332.5,0.00,22.5,25.1,"22:00:32",1
"18/07/08","22:20",0.0,24.2,89.0,1010.4,308.2,0.7,1.0,305.4,0.00,22.3,24.8,"22:14:24",1
"18/07/08","22:30",0.0,24.2,89.2,1010.4,290.2,0.7,1.1,309.8,0.00,22.3,24.8,"22:20:32",1
"18/07/08","22:40",0.0,24.2,89.3,1010.4,302.8,0.8,1.6,325.7,0.00,22.4,25.0,"22:35:28",1
"18/07/08","22:50",0.0,24.2,89.2,1010.2,290.6,0.7,1.1,256.9,0.00,22.3,24.7,"22:43:12",1
"18/07/08","23:00",0.0,24.3,89.1,1010.2,307.9,0.6,1.0,334.4,0.00,22.4,24.7,"22:52:16",1
"18/07/08","23:10",0.0,24.3,89.7,1010.4,299.8,0.8,1.2,309.1,0.00,22.5,24.8,"23:08:24",1
"18/07/08","23:20",0.0,24.1,89.9,1010.4,302.3,0.8,1.4,333.4,0.00,22.4,24.7,"23:19:04",1
"18/07/08","23:30",0.0,24.1,90.1,1010.7,300.9,0.7,1.1,328.9,0.00,22.4,24.5,"23:29:52",1
"18/07/08","23:40",0.0,24.2,90.0,1010.7,295.4,0.7,1.2,300.5,0.00,22.5,24.4,"23:36:56",1
"18/07/08","23:50",0.0,24.3,89.7,1010.7,284.8,0.6,1.0,254.4,0.00,22.5,24.5,"23:43:52",1
"18/07/08","24:00",0.0,24.3,89.6,1010.7,329.1,0.7,1.3,336.8,0.00,22.5,24.4,"23:56:48",1
